Back to catalog

COSMOS 1823 DEB

AliveLEO
NORAD 18731·DEBRIS·🇷🇺 Russia

Launched Feb 20, 1987 from Plesetsk Cosmodrome

Loading…

Next Passes (next 24 hours)

TLE

FreshSource: Space-Track

Epoch: Sep 14, 2026, 02:43 UTC

1 18731U 87020J   26257.11360212  .00000067  00000-0  59938-3 0  9995
2 18731  73.6241 267.0125 0017552  13.5195  46.3164 12.44132290757463

Track COSMOS 1823 DEB in real time with AllMySat

Download on the App Store